This demonstration page uses our WeatherBlox Daily Observations layout. Learn more.

Left ArrowRight Arrow

Hourly Observations for August 4, 2018

Temp ( °F °C ) Dew Point ( °F °C ) Humidity (%) Winds ( mph kmh ) Pressure ( in mb ) Visibility ( mi km ) Precip ( " mm )
12:15 am 00:15 Cloudy with Rain 68 20 68 20 100 100 Calm 30.12 1020 7 11.26538 0 0
12:35 am 00:35 Cloudy with Heavy Rain 68 20 68 20 100 100 WNW 3 6 30.12 1020 5 8.0467 0 0
12:55 am 00:55 Cloudy with Heavy Rain 68 20 68 20 100 100 NW 3 6 30.12 1020 5 8.0467 0 0
1:15 am 01:15 Cloudy with Light Rain 68 20 68 20 100 100 WNW 5 7 30.09 1019 7 11.26538 0 0
1:35 am 01:35 Cloudy with Heavy Rain 68 20 68 20 100 100 NW 5 7 30.09 1019 4 6.43736 0 0
1:55 am 01:55 Cloudy with Drizzle 68 20 68 20 100 100 NW 3 6 30.09 1019 5 8.0467 0 0
2:15 am 02:15 Cloudy with Light Rain 68 20 68 20 100 100 Calm 30.09 1019 10 16.0934 0 0
2:35 am 02:35 Cloudy with Drizzle 68 20 68 20 100 100 Calm 30.09 1019 7 11.26538 0 0
2:55 am 02:55 Cloudy 68 20 68 20 100 100 Calm 30.09 1019 10 16.0934 0 0
3:15 am 03:15 Cloudy 68 20 68 20 100 100 Calm 30.09 1019 10 16.0934 0 0
3:35 am 03:35 Cloudy 66 19 66 19 100 100 Calm 30.09 1019 10 16.0934 0 0
3:55 am 03:55 Cloudy 66 19 66 19 100 100 Calm 30.09 1019 10 16.0934 0 0
4:15 am 04:15 Mostly Cloudy 66 19 66 19 100 100 Calm 30.12 1020 10 16.0934 0 0
4:35 am 04:35 Partly Cloudy 64 18 64 18 100 100 Calm 30.12 1020 10 16.0934 0 0
4:55 am 04:55 Partly Cloudy 64 18 64 18 100 100 W 5 7 30.12 1020 10 16.0934 0 0
5:15 am 05:15 Partly Cloudy 64 18 64 18 100 100 WNW 5 7 30.12 1020 10 16.0934 0 0
5:35 am 05:35 Mostly Cloudy 64 18 64 18 100 100 W 5 7 30.12 1020 10 16.0934 0 0
5:55 am 05:55 Partly Cloudy 64 18 64 18 100 100 Calm 30.12 1020 10 16.0934 0 0
6:15 am 06:15 Partly Cloudy 64 18 64 18 100 100 NW 3 6 30.12 1020 10 16.0934 0 0
6:35 am 06:35 Partly Cloudy 64 18 64 18 100 100 Calm 30.15 1021 10 16.0934 0 0
6:55 am 06:55 Partly Cloudy 64 18 64 18 100 100 Calm 30.15 1021 10 16.0934 0 0
7:15 am 07:15 Mostly Cloudy 66 19 66 19 100 100 Calm 30.15 1021 10 16.0934 0 0
7:35 am 07:35 Mostly Cloudy 68 20 68 20 100 100 Calm 30.15 1021 10 16.0934 0 0
7:55 am 07:55 Partly Cloudy 68 20 68 20 100 100 NW 3 6 30.15 1021 10 16.0934 0 0
8:15 am 08:15 Sunny 70 21 68 20 94 94 WNW 6 9 30.15 1021 10 16.0934 0 0
8:35 am 08:35 Sunny 72 22 70 21 94 94 NW 8 13 30.18 1022 10 16.0934 0 0
8:55 am 08:55 Sunny 72 22 70 21 94 94 NW 7 11 30.18 1022 10 16.0934 0 0
9:15 am 09:15 Partly Cloudy 73 23 70 21 89 89 NW 7 11 30.18 1022 10 16.0934 0 0
9:35 am 09:35 Mostly Cloudy 73 23 70 21 89 89 NW 3 6 30.18 1022 10 16.0934 0 0
9:55 am 09:55 Partly Cloudy 75 24 68 20 78 78 NNW 6 9 30.18 1022 10 16.0934 0 0
10:15 am 10:15 Sunny 77 25 70 21 79 79 NW 8 13 30.18 1022 10 16.0934 0 0
10:35 am 10:35 Sunny 77 25 70 21 79 79 NW 7 11 30.18 1022 10 16.0934 0 0
10:55 am 10:55 Partly Cloudy 79 26 70 21 74 74 NW 7 11 30.18 1022 10 16.0934 0 0
11:15 am 11:15 Partly Cloudy 79 26 70 21 74 74 N 8 13 30.18 1022 10 16.0934 0 0
11:35 am 11:35 Partly Cloudy 79 26 72 22 79 79 NW 9 15 30.18 1022 10 16.0934 0 0
11:55 am 11:55 Partly Cloudy 81 27 72 22 74 74 NNW 6 9 30.18 1022 10 16.0934 0 0
12:15 pm 12:15 Partly Cloudy 79 26 70 21 74 74 Calm 30.18 1022 10 16.0934 0 0
12:35 pm 12:35 Partly Cloudy 81 27 72 22 74 74 W 3 6 30.18 1022 10 16.0934 0 0
12:55 pm 12:55 Partly Cloudy 82 28 72 22 70 70 Calm 30.18 1022 10 16.0934 0 0
1:15 pm 13:15 Partly Cloudy 82 28 72 22 70 70 WNW 9 15 30.18 1022 10 16.0934 0 0
1:35 pm 13:35 Partly Cloudy 84 29 72 22 66 66 WNW 6 9 30.15 1021 10 16.0934 0 0
1:55 pm 13:55 Mostly Cloudy 86 30 72 22 62 62 W 5 7 30.15 1021 10 16.0934 0 0
2:15 pm 14:15 Mostly Cloudy 84 29 72 22 66 66 Calm 30.15 1021 10 16.0934 0 0
2:35 pm 14:35 Partly Cloudy 86 30 72 22 62 62 WSW 5 7 30.15 1021 10 16.0934 0 0
2:55 pm 14:55 Partly Cloudy 86 30 72 22 62 62 W 6 9 30.15 1021 10 16.0934 0 0
3:15 pm 15:15 Sunny 86 30 72 22 62 62 Calm 30.15 1021 10 16.0934 0 0
3:35 pm 15:35 Sunny 88 31 72 22 59 59 Calm 30.15 1021 10 16.0934 0 0
3:55 pm 15:55 Partly Cloudy 88 31 72 22 59 59 WSW 5 7 30.15 1021 10 16.0934 0 0
4:15 pm 16:15 Partly Cloudy 88 31 72 22 59 59 WNW 3 6 30.15 1021 10 16.0934 0 0
4:35 pm 16:35 Sunny 88 31 72 22 59 59 WSW 6 9 30.15 1021 10 16.0934 0 0
4:55 pm 16:55 Partly Cloudy 88 31 70 21 55 55 SW 3 6 30.15 1021 10 16.0934 0 0
5:15 pm 17:15 Partly Cloudy 88 31 72 22 59 59 Calm 30.15 1021 10 16.0934 0 0
5:35 pm 17:35 Sunny 88 31 72 22 59 59 SW 6 9 30.15 1021 10 16.0934 0 0
5:55 pm 17:55 Sunny 88 31 72 22 59 59 SSW 3 6 30.15 1021 10 16.0934 0 0
6:15 pm 18:15 Sunny 88 31 72 22 59 59 SSW 3 6 30.15 1021 10 16.0934 0 0
6:35 pm 18:35 Sunny 88 31 72 22 59 59 SSW 6 9 30.15 1021 10 16.0934 0 0
6:55 pm 18:55 Sunny 88 31 73 23 62 62 SSW 3 6 30.15 1021 10 16.0934 0 0
7:15 pm 19:15 Sunny 86 30 73 23 66 66 Calm 30.15 1021 10 16.0934 0 0
7:35 pm 19:35 Sunny 86 30 73 23 66 66 SSW 3 6 30.15 1021 10 16.0934 0 0
7:55 pm 19:55 Sunny 82 28 73 23 74 74 SW 3 6 30.15 1021 10 16.0934 0 0
8:15 pm 20:15 Sunny 82 28 73 23 74 74 Calm 30.15 1021 10 16.0934 0 0
8:35 pm 20:35 Clear 81 27 73 23 79 79 Calm 30.15 1021 10 16.0934 0 0
8:55 pm 20:55 Clear 79 26 73 23 84 84 Calm 30.15 1021 10 16.0934 0 0
9:15 pm 21:15 Clear 79 26 73 23 84 84 WSW 5 7 30.15 1021 10 16.0934 0 0
9:35 pm 21:35 Clear 77 25 73 23 89 89 WSW 5 7 30.15 1021 10 16.0934 0 0
9:55 pm 21:55 Clear 77 25 73 23 89 89 SW 3 6 30.15 1021 10 16.0934 0 0
10:15 pm 22:15 Clear 75 24 73 23 94 94 Calm 30.18 1022 10 16.0934 0 0
10:35 pm 22:35 Clear 75 24 73 23 94 94 Calm 30.18 1022 10 16.0934 0 0
10:55 pm 22:55 Clear 73 23 73 23 100 100 W 3 6 30.18 1022 10 16.0934 0 0
11:15 pm 23:15 Clear 73 23 72 22 94 94 WSW 3 6 30.18 1022 10 16.0934 0 0
11:35 pm 23:35 Clear 73 23 72 22 94 94 Calm 30.18 1022 10 16.0934 0 0
11:55 pm 23:55 Clear 72 22 72 22 100 100 Calm 30.18 1022 10 16.0934 0 0

Powered by AerisWeather